Wind_Speed
7 6 5 5 4 4 4 3 2 3 3 4 5 5 6 6 7 7 7 6 5 6 6 7 7 7 7 7 8 8 8 8 8 8 8 8 7 7 7 6 6 6 5 4
8 7 6 5 4 3 3 2 1 1 2 3 4 5 5 6 6 6 6 6 5 5 6 6 7 8 7 7 7 7 7 8 8 8 8 8 7 7 7 7 7 6 6 6
10 9 8 7 4 3 3 2 2 1 1 3 4 5 5 5 5 5 6 6 4 4 4 6 6 7 7 6 6 7 7 7 7 7 7 7 7 7 7 7 7 7 7 6
11 10 9 8 7 5 4 4 4 3 1 3 4 4 5 5 5 5 5 4 4 3 3 4 5 6 6 6 5 5 6 6 7 7 7 7 7 8 8 8 8 8 7 7
12 11 11 10 8 7 6 5 5 4 3 3 4 3 4 5 5 5 5 4 4 3 3 4 4 5 6 6 6 5 5 6 7 7 7 7 8 8 8 9 9 9 8 8
13 12 12 11 10 9 8 7 7 7 5 5 5 5 4 5 5 5 5 5 4 4 4 3 4 4 5 6 6 6 5 6 6 7 7 7 8 9 9 9 10 10 10 10
14 13 13 12 11 11 10 8 6 7 7 8 7 7 5 5 4 4 5 5 5 5 5 4 3 3 4 5 6 6 6 6 6 6 7 8 8 9 9 10 10 10 10 10
16 16 15 14 13 12 11 10 9 9 9 9 9 8 6 6 5 5 5 5 5 5 5 5 5 4 5 6 6 6 7 7 7 7 7 8 9 9 10 10 10 11 11 11
18 18 17 16 15 15 13 12 12 11 11 10 9 9 7 6 6 7 7 7 6 6 6 6 6 6 6 7 7 8 8 8 8 9 9 9 10 10 10 10 11 12 12 12
20 20 19 18 18 17 16 14 13 12 12 12 10 10 8 8 8 8 8 9 9 9 8 8 8 8 8 9 10 10 9 10 10 10 10 11 11 11 12 12 12 12 13 13
22 21 20 20 20 19 18 17 16 16 15 14 13 12 12 11 10 10 10 10 10 10 10 10 10 10 10 11 11 11 11 11 11 12 12 12 12 13 13 13 13 13 14 14
24 23 23 22 22 22 21 20 18 18 18 17 16 14 14 13 12 12 12 13 13 12 12 11 12 12 13 13 13 13 13 14 14 14 14 14 14 15 15 15 15 15 15 15
26 26 24 23 23 24 24 23 21 20 20 19 18 16 16 15 15 14 14 15 15 15 15 15 14 14 15 15 15 15 16 16 17 16 16 16 16 16 17 17 16 16 17 17
28 28 27 25 24 24 25 24 23 22 22 21 20 18 18 18 17 17 16 16 17 18 18 17 17 16 16 17 17 18 18 18 18 18 18 18 18 18 19 19 19 19 19 19
30 30 29 29 28 27 27 26 25 24 24 24 23 22 21 20 19 18 18 18 18 19 19 19 19 18 18 19 19 19 19 20 20 20 19 19 19 19 20 20 20 20 21 22
32 32 30 30 29 30 29 28 27 27 26 26 25 24 22 22 21 20 20 20 20 20 21 21 21 21 21 21 21 21 21 21 22 21 21 21 21 21 21 21 22 23 23 24
33 33 32 31 30 31 31 29 28 29 28 27 27 26 25 24 23 21 21 22 21 21 21 22 22 23 23 24 24 24 24 24 24 24 24 24 24 24 23 24 24 25 26 26
34 34 34 32 33 35 32 29 29 30 29 29 29 27 27 26 25 24 23 23 23 23 24 24 25 25 26 26 26 26 27 26 26 26 27 27 27 27 27 27 27 28 28 27
35 34 34 34 34 35 34 31 31 31 30 29 29 28 28 26 26 27 26 26 25 25 26 26 27 28 28 28 28 28 28 29 29 29 29 30 30 30 29 29 30 30 31 30
35 34 35 35 35 34 32 31 30 30 31 30 29 29 28 28 28 28 27 28 27 28 28 28 29 29 29 30 30 30 30 30 30 30 31 32 32 32 32 32 32 33 33 33
35 35 35 35 35 34 32 30 29 30 30 30 30 30 29 29 29 29 29 30 29 29 30 29 29 30 31 32 31 31 31 31 32 32 33 33 34 34 34 35 35 35 35 35
35 35 35 35 34 34 33 32 31 31 30 31 30 30 30 30 30 30 30 31 31 31 31 30 29 30 31 32 33 33 32 33 33 34 34 34 35 36 36 37 37 37 37 37
35 34 34 34 33 33 32 32 31 31 31 32 32 31 30 30 30 30 31 32 32 32 32 31 31 31 31 32 33 33 33 34 35 35 36 36 37 38 39 39 39 39 39 39
35 34 34 33 33 32 32 32 31 31 32 32 32 32 32 32 31 32 32 32 32 32 32 32 32 32 32 33 34 35 36 36 36 36 37 37 38 39 40 40 40 41 41 40
35 34 34 33 32 32 32 32 32 32 32 32 32 33 33 33 32 33 33 32 32 33 33 34 34 33 34 35 36 36 37 37 37 37 38 38 38 40 40 41 41 41 41 41
34 34 33 33 33 33 33 33 33 33 33 33 32 32 33 34 34 34 34 34 33 33 34 34 35 35 35 36 36 37 37 36 36 36 38 39 39 40 41 42 41 41 42 41
Wind_Direction
176 169 165 160 157 148 137 118 103 88 65 58 58 53 46 45 40 40 43 49 59 62 65 64 59 59 69 77 74 70 69 68 65 65 66 65 60 54 52 51 48 38 30 22
192 194 192 188 180 162 148 134 120 78 56 52 46 35 31 31 32 31 33 38 52 59 65 59 58 58 63 74 70 66 66 62 59 58 54 51 45 42 45 46 35 25 19 13
203 208 204 204 203 190 184 191 210 241 25 22 21 19 9 16 21 22 22 29 36 43 51 49 52 53 57 67 63 59 57 54 51 47 42 37 36 37 38 32 22 15 12 11
212 213 211 216 219 216 228 232 227 241 301 344 354 5 354 357 359 7 9 15 20 25 36 32 36 40 43 45 49 48 47 47 42 38 34 29 29 25 20 19 15 9 4 359
218 216 217 224 229 232 235 240 242 252 279 307 318 340 334 340 344 346 354 357 357 8 16 18 23 28 32 33 33 32 35 31 26 23 24 19 16 14 14 12 10 8 2 354
221 220 221 226 233 236 243 249 259 267 283 283 284 301 312 315 327 330 333 336 336 345 353 1 10 16 21 24 24 23 21 16 17 17 14 11 8 9 8 6 4 4 1 354
224 226 228 229 234 240 248 252 268 277 279 274 280 291 290 287 303 311 317 319 318 323 333 337 345 355 3 7 8 6 3 358 358 3 4 4 3 0 356 354 355 355 355 352
229 232 234 232 233 242 247 246 245 255 265 272 285 284 285 280 280 285 294 307 316 315 320 323 317 320 332 345 346 345 348 347 349 350 348 347 345 344 344 346 349 347 347 346
229 234 236 235 236 241 246 248 251 257 263 266 268 276 285 282 277 279 281 285 297 306 312 312 309 311 316 322 325 328 335 340 340 339 335 333 333 334 335 337 339 340 342 342
232 235 238 238 239 242 244 246 254 254 256 261 266 274 277 276 272 277 280 280 284 287 290 292 295 298 302 305 309 314 318 322 325 327 328 327 327 327 328 329 329 330 332 334
232 237 240 242 241 243 247 249 251 254 256 258 264 267 270 271 272 275 276 277 281 283 283 285 288 291 294 297 300 306 308 309 313 317 318 318 319 320 319 318 320 321 322 325
233 236 241 244 246 245 247 249 253 256 260 260 260 262 270 270 270 271 273 273 274 275 275 278 282 286 289 292 296 299 301 302 304 307 310 313 315 317 318 317 315 315 317 318
233 236 241 247 251 250 248 250 253 255 257 259 261 264 267 265 266 269 271 269 267 269 270 273 277 280 284 288 292 294 296 299 300 300 302 305 308 311 314 314 312 311 312 313
236 238 239 241 245 250 252 253 253 254 256 259 262 262 261 264 265 265 268 269 268 268 268 269 272 274 278 282 286 290 292 294 297 297 298 300 302 306 308 310 310 307 307 308
239 241 242 243 244 247 250 252 253 253 255 257 260 263 262 262 263 264 264 266 267 267 266 267 268 271 276 280 283 285 288 289 292 293 295 297 299 300 303 304 305 306 304 304
240 242 244 246 247 249 250 250 251 253 256 258 260 262 262 261 262 263 263 263 265 265 266 267 269 271 275 277 280 283 284 285 287 290 292 294 295 297 298 299 300 302 303 303
241 243 245 247 249 250 251 251 252 254 256 258 260 261 259 258 261 263 265 264 265 265 264 266 269 272 273 275 278 280 281 282 284 286 288 291 292 294 294 295 297 297 298 300
242 244 245 248 250 250 251 252 252 253 254 256 258 259 260 260 260 262 264 265 266 266 265 264 267 269 271 274 276 278 281 282 282 284 286 287 289 290 291 292 293 295 295 297
243 244 246 248 251 254 253 252 252 254 254 255 257 258 259 259 260 261 262 263 265 267 267 267 267 268 271 274 276 277 279 281 281 282 284 285 286 287 289 290 292 294 294 295
244 245 246 247 249 252 254 253 252 254 256 255 256 257 258 258 259 260 262 263 264 266 268 268 270 270 272 274 275 276 278 279 280 281 283 284 285 287 289 290 293 294 294 294
245 245 246 247 249 251 253 254 252 254 256 256 257 256 257 258 258 259 261 263 265 266 268 269 270 271 272 274 276 277 277 278 279 281 283 284 286 287 289 291 293 293 293 293
244 246 247 248 250 252 254 254 253 254 255 255 256 257 258 258 260 260 261 263 265 266 268 270 271 272 274 275 276 277 277 278 280 282 283 285 287 287 289 290 291 292 292 293
244 245 247 247 250 253 254 255 256 257 257 257 256 258 258 259 260 260 262 264 265 266 268 270 272 275 275 276 276 277 278 279 281 283 284 286 287 288 288 290 291 292 292 291
245 245 246 248 249 252 254 255 257 258 259 259 259 259 259 260 260 261 263 264 266 268 269 271 272 273 274 275 276 278 278 280 282 284 285 286 287 288 288 289 291 292 292 291
244 245 247 248 250 252 253 254 256 258 260 261 260 259 258 259 260 261 263 264 266 267 268 269 271 272 273 275 276 277 279 279 281 283 285 286 286 287 287 288 289 290 290 290
244 245 247 249 250 252 254 254 256 258 259 260 259 259 259 260 260 262 263 264 265 266 267 268 270 271 272 275 277 278 280 280 281 282 284 285 286 287 288 290 290 291 290 290
Height
5925 5927 5927 5928 5929 5929 5930 5930 5930 5930 5929 5928 5927 5927 5925 5924 5923 5921 5920 5919 5917 5916 5915 5914 5913 5912 5911 5910 5908 5907 5906 5905 5904 5904 5903 5902 5901 5900 5898 5897 5896 5895 5893 5892
5926 5927 5927 5928 5928 5929 5930 5931 5931 5930 5929 5929 5928 5928 5927 5925 5924 5923 5922 5920 5919 5918 5917 5916 5914 5913 5912 5911 5910 5909 5908 5907 5906 5905 5904 5903 5901 5900 5899 5898 5897 5895 5893 5892
5925 5926 5926 5927 5928 5929 5930 5931 5931 5930 5930 5930 5929 5930 5928 5927 5925 5924 5923 5922 5920 5919 5918 5917 5916 5915 5913 5912 5911 5910 5909 5908 5907 5906 5905 5903 5902 5901 5899 5898 5896 5895 5893 5891
5923 5924 5925 5926 5927 5928 5930 5930 5930 5930 5930 5931 5931 5932 5930 5927 5926 5925 5924 5922 5921 5920 5919 5918 5917 5916 5915 5913 5912 5911 5910 5909 5908 5906 5905 5904 5903 5901 5900 5898 5896 5894 5893 5891
5922 5923 5924 5925 5927 5927 5928 5929 5929 5929 5930 5931 5931 5931 5932 5928 5927 5926 5924 5923 5922 5921 5920 5919 5918 5917 5916 5914 5913 5912 5911 5910 5908 5907 5906 5904 5903 5902 5900 5898 5896 5894 5892 5890
5920 5921 5922 5924 5925 5926 5927 5928 5928 5929 5930 5931 5930 5930 5930 5928 5926 5926 5924 5923 5922 5921 5920 5919 5918 5917 5916 5915 5914 5912 5911 5910 5909 5907 5906 5904 5903 5902 5900 5898 5896 5894 5891 5889
5918 5919 5921 5922 5923 5924 5926 5928 5930 5930 5931 5931 5929 5928 5929 5927 5926 5925 5924 5923 5922 5921 5920 5919 5919 5918 5917 5916 5914 5913 5912 5910 5909 5907 5906 5904 5903 5901 5899 5897 5895 5893 5891 5888
5916 5918 5919 5920 5921 5923 5924 5926 5928 5930 5930 5930 5928 5927 5927 5925 5924 5924 5923 5922 5922 5921 5920 5919 5918 5917 5917 5915 5914 5913 5912 5910 5909 5907 5905 5904 5902 5900 5898 5896 5894 5892 5890 5887
5913 5915 5916 5917 5918 5920 5921 5922 5924 5926 5926 5926 5927 5926 5925 5923 5923 5922 5922 5921 5921 5920 5919 5919 5918 5917 5916 5915 5914 5913 5911 5910 5908 5906 5905 5903 5901 5899 5898 5896 5893 5891 5888 5886
5908 5910 5912 5913 5915 5916 5918 5919 5921 5922 5922 5924 5925 5924 5924 5922 5921 5921 5920 5919 5919 5919 5918 5917 5917 5916 5915 5914 5913 5911 5910 5909 5907 5905 5904 5902 5900 5898 5896 5894 5892 5890 5887 5884
5904 5906 5908 5910 5911 5913 5914 5916 5916 5918 5918 5920 5922 5924 5921 5919 5919 5918 5918 5917 5917 5916 5916 5916 5915 5914 5913 5912 5911 5910 5908 5907 5905 5904 5902 5900 5898 5896 5894 5892 5890 5888 5885 5883
5898 5902 5903 5905 5906 5908 5909 5911 5913 5914 5914 5915 5916 5921 5917 5916 5915 5915 5915 5915 5914 5914 5914 5913 5913 5912 5911 5910 5909 5908 5906 5905 5903 5902 5900 5898 5896 5894 5892 5890 5887 5885 5883 5881
5893 5896 5898 5900 5903 5903 5904 5906 5907 5909 5910 5910 5912 5916 5913 5912 5911 5911 5911 5911 5911 5911 5910 5910 5909 5909 5908 5907 5906 5905 5903 5902 5900 5899 5897 5895 5893 5891 5889 5887 5885 5882 5880 5878
5887 5889 5893 5896 5897 5898 5898 5900 5902 5903 5904 5906 5907 5909 5908 5907 5907 5907 5907 5907 5907 5907 5906 5906 5906 5905 5904 5903 5902 5901 5900 5898 5897 5895 5893 5892 5890 5888 5886 5883 5881 5879 5876 5874
5879 5882 5885 5887 5889 5891 5892 5894 5895 5897 5898 5900 5901 5902 5902 5902 5902 5902 5902 5902 5902 5902 5902 5902 5901 5900 5900 5899 5898 5897 5895 5894 5893 5891 5889 5888 5886 5884 5881 5879 5877 5875 5872 5870
5872 5874 5877 5879 5882 5884 5885 5887 5889 5890 5891 5893 5894 5895 5896 5895 5896 5896 5896 5897 5897 5896 5896 5896 5896 5895 5895 5894 5893 5891 5890 5889 5888 5886 5885 5883 5881 5879 5877 5874 5872 5870 5867 5865
5864 5867 5870 5872 5874 5875 5877 5880 5882 5883 5884 5886 5887 5888 5888 5889 5889 5890 5890 5890 5890 5891 5891 5890 5890 5889 5889 5888 5887 5886 5885 5883 5882 5881 5879 5877 5875 5873 5871 5869 5867 5864 5861 5859
5856 5858 5861 5864 5866 5866 5872 5873 5874 5875 5876 5878 5879 5880 5881 5882 5883 5883 5884 5884 5884 5884 5884 5884 5883 5883 5882 5881 5881 5880 5878 5877 5876 5874 5873 5871 5869 5867 5865 5862 5860 5857 5855 5852
5847 5850 5852 5855 5856 5858 5862 5864 5866 5867 5868 5870 5871 5872 5873 5874 5875 5876 5876 5877 5877 5877 5877 5877 5876 5876 5875 5874 5874 5873 5871 5870 5869 5867 5865 5863 5861 5859 5857 5855 5852 5850 5847 5845
5838 5841 5844 5846 5848 5850 5854 5855 5857 5859 5859 5861 5862 5863 5865 5866 5867 5868 5868 5869 5869 5869 5869 5869 5868 5868 5867 5866 5865 5865 5863 5862 5860 5859 5857 5855 5853 5851 5849 5846 5844 5841 5839 5836
5829 5831 5834 5836 5838 5841 5845 5846 5848 5850 5851 5852 5853 5855 5856 5857 5859 5860 5860 5860 5860 5860 5860 5860 5859 5859 5858 5858 5857 5856 5855 5854 5852 5850 5849 5847 5844 5842 5840 5838 5835 5833 5830 5827
5820 5823 5825 5827 5830 5834 5835 5837 5839 5840 5842 5843 5844 5846 5847 5848 5849 5850 5851 5851 5851 5851 5851 5851 5850 5850 5849 5849 5848 5847 5846 5844 5843 5841 5839 5837 5835 5833 5831 5828 5825 5823 5820 5817
5811 5815 5817 5819 5823 5824 5825 5827 5829 5830 5832 5833 5835 5836 5838 5839 5840 5841 5841 5842 5842 5842 5842 5842 5841 5841 5840 5839 5838 5837 5836 5834 5832 5831 5829 5827 5825 5823 5820 5818 5815 5812 5809 5806
5802 5805 5807 5810 5812 5814 5816 5817 5819 5821 5822 5824 5825 5827 5828 5829 5830 5831 5832 5832 5832 5832 5833 5832 5832 5831 5831 5830 5828 5827 5825 5823 5821 5820 5818 5816 5814 5812 5810 5807 5804 5801 5798 5795
5792 5795 5798 5800 5803 5805 5806 5808 5809 5811 5812 5814 5816 5817 5818 5819 5820 5821 5822 5823 5823 5823 5823 5822 5822 5822 5821 5819 5818 5817 5815 5813 5811 5809 5808 5806 5803 5801 5798 5795 5793 5790 5787 5784
5784 5787 5789 5791 5794 5795 5797 5798 5799 5801 5802 5804 5806 5807 5808 5809 5810 5811 5812 5812 5813 5813 5813 5813 5812 5811 5810 5809 5808 5806 5804 5803 5801 5799 5797 5795 5793 5790 5787 5784 5782 5778 5776 5773